OBJECT AN, 67284

Orbit data source: Space-Track

You're viewing an Uncataloged Satellite

Recently launched and/or uncataloged satellites may have evolving metadata. Metadata may include but not limited to: Owner, Maufacturer, Bus, Motor, and Mission.

OBJECT AN, 67284 is a satellite in SSO that was launched on Sun, 28 Dec 2025 UTC via a SOYUZ-2-1B launch vehicle from the Vostochny Cosmodrome (VOSTO). Unknown objects in Earth's orbit typically refer to objects detected orbiting the Earth but have not yet been identified or cataloged. These objects could be anything from previously untracked satellites, spent rocket stages, debris from satellite collisions, or even natural meteoroids temporarily captured by Earth's gravity.

Loading next visibility...
Identifier
67284, 2025-313AN
Orbit
SSO
Country
Flag of TBDTBD
Related business
Manufacturer
Geoskan
Mission
Operational Commercial Technology
Bus & Motor
CUBESAT 16U, Unknown motor
Mass
27 kg wet, 27 kg dry
Launch date (UTC)
2025-12-28 (6 months ago)
Launch vehicle
SOYUZ-2-1B
Launch site
Vostochny Cosmodrome (VOSTO)
Object type
Unknown
Shape & HBR
Box, 0.1 m
Radar Cross Section
0.035 m², Medium (>0.1 m² and < 1m²)

Expand to show TLE details & history
Last TLE update: 16 hours ago

TLE from 16 hours ago
0 OBJECT AN
1 67284U 25313AN  26171.18605807  .00004033  00000-0  17476-3 0  9991
2 67284  97.3918 245.8276 0010236 357.9207   2.1986 15.22914821 26419
Epoch: 2026-06-20T04:27Z
TLE epoch observation values (Epoch: 2026-06-20T04:27:55.417Z)
Latitude
0.00005°
Longitude
-89.55761°
Altitude
493.115 km
Speed
7.622 km/s
True Right ascension
16h 23m 18s
True Declination
0° 00' 00"
Sunlit
Object was in full shadow at epoch
Visualization orbit readout
Latitude
Unknown
Longitude
Unknown
Altitude
Unknown
Speed
Unknown
Apparent Right ascension
Unknown
Apparent Declination
Unknown
Sunlit
N/A
Visualization observer readout
Local Sidereal Time
07:21:30
Azimuth
Unknown
Elevation
Unknown
Doppler factor
Unknown
Orbital elements
Apogee altitude
501.05 km
Perigee altitude
486.981 km
Semi-major axis
6,872.152 km
Eccentricity
0.00102
Inclination
97.3918°
RAAN
245.8276°
Arg. of periapsis
357.9207°
True anomaly
2.20311°
Mean anomaly
2.1986°
Eccentric anomaly
2.20085°
Mean motion
3.80982 °/min
Orbital period
94.49 mins
BSTAR
0.00017476
Loading maneuver chart data...
Computing Atmospheric mass density...
Loading historical data...
Loading historical data...
Loading historical data...
Loading historical data...
Loading historical data...
Loading historical data...
Loading historical data...

Documentation

Showing up to 5 results
|